"Serial No","Timestamp","Temperature","Humidity"
"1412101873","2014/10/01 00:01:13","23.4","80"
"1412102180","2014/10/01 00:06:20","23.4","80"
"1412102488","2014/10/01 00:11:28","23.4","80"
"1412102796","2014/10/01 00:16:36","23.4","81"
"1412103103","2014/10/01 00:21:43","23.4","81"
"1412103411","2014/10/01 00:26:51","23.4","81"
"1412103719","2014/10/01 00:31:59","23.3","81"
"1412104026","2014/10/01 00:37:06","23.3","81"
"1412104334","2014/10/01 00:42:14","23.3","81"
"1412104641","2014/10/01 00:47:21","23.2","81"
"1412104898","2014/10/01 00:51:38","23.2","81"
"1412105205","2014/10/01 00:56:45","23.2","81"
"1412105513","2014/10/01 01:01:53","23.2","81"
"1412105821","2014/10/01 01:07:01","23.2","81"
"1412106128","2014/10/01 01:12:08","23.2","81"
"1412106436","2014/10/01 01:17:16","23.1","81"
"1412106743","2014/10/01 01:22:23","23","81"
"1412107050","2014/10/01 01:27:30","23","81"
"1412107358","2014/10/01 01:32:38","23","81"
"1412107666","2014/10/01 01:37:46","23","81"
"1412107974","2014/10/01 01:42:54","22.9","81"
"1412108281","2014/10/01 01:48:01","23","81"
"1412108537","2014/10/01 01:52:17","23","81"
"1412108845","2014/10/01 01:57:25","23","81"
"1412109153","2014/10/01 02:02:33","23","81"
"1412109460","2014/10/01 02:07:40","23","81"
"1412109767","2014/10/01 02:12:47","23","81"
"1412110076","2014/10/01 02:17:56","23","81"
"1412110384","2014/10/01 02:23:04","23","81"
"1412110691","2014/10/01 02:28:11","23","81"
"1412110999","2014/10/01 02:33:19","23","81"
"1412111306","2014/10/01 02:38:26","23","81"
"1412111614","2014/10/01 02:43:34","23","81"
"1412111922","2014/10/01 02:48:42","23","81"
"1412112229","2014/10/01 02:53:49","23","81"
"1412112485","2014/10/01 02:58:05","23","81"
"1412112792","2014/10/01 03:03:12","23","81"
"1412113101","2014/10/01 03:08:21","23","81"
"1412113408","2014/10/01 03:13:28","23","81"
"1412113716","2014/10/01 03:18:36","23","81"
"1412114024","2014/10/01 03:23:44","23","81"
"1412114331","2014/10/01 03:28:51","23","81"
"1412114639","2014/10/01 03:33:59","23","81"
"1412114946","2014/10/01 03:39:06","23","81"
"1412115253","2014/10/01 03:44:13","23","81"
"1412115561","2014/10/01 03:49:21","23","81"
"1412115868","2014/10/01 03:54:28","23","81"
"1412116176","2014/10/01 03:59:36","23","81"
"1412116484","2014/10/01 04:04:44","23","81"
"1412116740","2014/10/01 04:09:00","22.9","81"
"1412117048","2014/10/01 04:14:08","22.9","81"
"1412117355","2014/10/01 04:19:15","22.9","81"
"1412117663","2014/10/01 04:24:23","22.9","81"
"1412117970","2014/10/01 04:29:30","22.9","81"
"1412118278","2014/10/01 04:34:38","22.9","81"
"1412118586","2014/10/01 04:39:46","22.8","81"
"1412118893","2014/10/01 04:44:53","22.8","81"
"1412119200","2014/10/01 04:50:00","22.8","81"
"1412119508","2014/10/01 04:55:08","22.8","81"
"1412119815","2014/10/01 05:00:15","22.8","81"
"1412120123","2014/10/01 05:05:23","22.8","81"
"1412120431","2014/10/01 05:10:31","22.7","81"
"1412120688","2014/10/01 05:14:48","22.7","81"
"1412120994","2014/10/01 05:19:54","22.7","81"
"1412121302","2014/10/01 05:25:02","22.7","81"
"1412121611","2014/10/01 05:30:11","22.7","81"
"1412121918","2014/10/01 05:35:18","22.6","81"
"1412122225","2014/10/01 05:40:25","22.6","81"
"1412122532","2014/10/01 05:45:32","22.6","81"
"1412122841","2014/10/01 05:50:41","22.6","81"
"1412123149","2014/10/01 05:55:49","22.6","81"
"1412123455","2014/10/01 06:00:55","22.6","81"
"1412123763","2014/10/01 06:06:03","22.6","81"
"1412124071","2014/10/01 06:11:11","22.6","81"
"1412124378","2014/10/01 06:16:18","22.6","81"
"1412124635","2014/10/01 06:20:35","22.6","81"
"1412124942","2014/10/01 06:25:42","22.6","81"
"1412125250","2014/10/01 06:30:50","22.7","81"
"1412125557","2014/10/01 06:35:57","22.7","81"
"1412125865","2014/10/01 06:41:05","22.7","81"
"1412126173","2014/10/01 06:46:13","22.7","81"
"1412126479","2014/10/01 06:51:19","22.8","81"
"1412126787","2014/10/01 06:56:27","22.8","81"
"1412127095","2014/10/01 07:01:35","22.8","81"
"1412127403","2014/10/01 07:06:43","22.8","81"
"1412127711","2014/10/01 07:11:51","22.8","81"
"1412128018","2014/10/01 07:16:58","22.9","81"
"1412128326","2014/10/01 07:22:06","22.9","81"
"1412128582","2014/10/01 07:26:22","22.9","81"
"1412128890","2014/10/01 07:31:30","22.9","81"
"1412129197","2014/10/01 07:36:37","23","81"
"1412129505","2014/10/01 07:41:45","23","81"
"1412129813","2014/10/01 07:46:53","23.1","81"
"1412130120","2014/10/01 07:52:00","23.2","81"
"1412130428","2014/10/01 07:57:08","23.2","81"
"1412130735","2014/10/01 08:02:15","23.3","81"
"1412131042","2014/10/01 08:07:22","23.4","81"
"1412131350","2014/10/01 08:12:30","23.4","81"
"1412131657","2014/10/01 08:17:37","23.4","81"
"1412131966","2014/10/01 08:22:46","23.5","81"
"1412132274","2014/10/01 08:27:54","23.5","81"
"1412132580","2014/10/01 08:33:00","23.6","81"
"1412132837","2014/10/01 08:37:17","23.6","81"
"1412133144","2014/10/01 08:42:24","23.6","81"
"1412133452","2014/10/01 08:47:32","23.6","81"
"1412133759","2014/10/01 08:52:39","23.7","81"
"1412134067","2014/10/01 08:57:47","23.7","81"
"1412134375","2014/10/01 09:02:55","23.7","81"
"1412134682","2014/10/01 09:08:02","23.8","81"
"1412134990","2014/10/01 09:13:10","23.9","81"
"1412135298","2014/10/01 09:18:18","23.9","81"
"1412135605","2014/10/01 09:23:25","24","81"
"1412135913","2014/10/01 09:28:33","24.1","81"
"1412136220","2014/10/01 09:33:40","24.1","80"
"1412136528","2014/10/01 09:38:48","24.2","80"
"1412136784","2014/10/01 09:43:04","24.2","80"
"1412137092","2014/10/01 09:48:12","24.2","80"
"1412137400","2014/10/01 09:53:20","24.3","80"
"1412137707","2014/10/01 09:58:27","24.3","79"
"1412138014","2014/10/01 10:03:34","24.4","79"
"1412138321","2014/10/01 10:08:41","24.4","79"
"1412138630","2014/10/01 10:13:50","24.5","79"
"1412138938","2014/10/01 10:18:58","24.5","79"
"1412139244","2014/10/01 10:24:04","24.5","78"
"1412139552","2014/10/01 10:29:12","24.6","78"
"1412139861","2014/10/01 10:34:21","24.7","78"
"1412140168","2014/10/01 10:39:28","24.7","78"
"1412140476","2014/10/01 10:44:36","24.7","77"
"1412140783","2014/10/01 10:49:43","24.8","77"
"1412141039","2014/10/01 10:53:59","24.9","77"
"1412141346","2014/10/01 10:59:06","24.9","77"
"1412141655","2014/10/01 11:04:15","25","76"
"1412141963","2014/10/01 11:09:23","25.1","76"
"1412142270","2014/10/01 11:14:30","25.2","76"
"1412142578","2014/10/01 11:19:38","25.2","75"
"1412142884","2014/10/01 11:24:44","25.3","75"
"1412143192","2014/10/01 11:29:52","25.3","75"
"1412143500","2014/10/01 11:35:00","25.3","75"
"1412143807","2014/10/01 11:40:07","25.3","74"
"1412144115","2014/10/01 11:45:15","25.4","74"
"1412144423","2014/10/01 11:50:23","25.4","74"
"1412144730","2014/10/01 11:55:30","25.5","74"
"1412144987","2014/10/01 11:59:47","25.5","73"
"1412145294","2014/10/01 12:04:54","25.6","73"
"1412145602","2014/10/01 12:10:02","25.6","73"
"1412145909","2014/10/01 12:15:09","25.6","72"
"1412146217","2014/10/01 12:20:17","25.6","72"
"1412146525","2014/10/01 12:25:25","25.7","73"
"1412146832","2014/10/01 12:30:32","25.8","71"
"1412147140","2014/10/01 12:35:40","25.9","71"
"1412147447","2014/10/01 12:40:47","26","70"
"1412147755","2014/10/01 12:45:55","26","70"
"1412148063","2014/10/01 12:51:03","26.1","70"
"1412148369","2014/10/01 12:56:09","26.2","69"
"1412148677","2014/10/01 13:01:17","26.2","67"
"1412148934","2014/10/01 13:05:34","26.3","67"
"1412149242","2014/10/01 13:10:42","26.3","67"
"1412149549","2014/10/01 13:15:49","26.4","68"
"1412149856","2014/10/01 13:20:56","26.4","68"
"1412150164","2014/10/01 13:26:04","26.5","67"
"1412150471","2014/10/01 13:31:11","26.6","67"
"1412150780","2014/10/01 13:36:20","26.6","66"
"1412151088","2014/10/01 13:41:28","26.7","66"
"1412151395","2014/10/01 13:46:35","26.7","66"
"1412151703","2014/10/01 13:51:43","26.8","64"
"1412152009","2014/10/01 13:56:49","26.8","63"
"1412152317","2014/10/01 14:01:57","26.9","61"
"1412152625","2014/10/01 14:07:05","27","61"
"1412152932","2014/10/01 14:12:12","27","61"
"1412153189","2014/10/01 14:16:29","27","61"
"1412153496","2014/10/01 14:21:36","27","61"
"1412153804","2014/10/01 14:26:44","27.1","60"
"1412154111","2014/10/01 14:31:51","27.1","60"
"1412154419","2014/10/01 14:36:59","27.2","61"
"1412154727","2014/10/01 14:42:07","27.3","61"
"1412155034","2014/10/01 14:47:14","27.3","61"
"1412155342","2014/10/01 14:52:22","27.3","62"
"1412155650","2014/10/01 14:57:30","27.2","62"
"1412155957","2014/10/01 15:02:37","27.2","61"
"1412156265","2014/10/01 15:07:45","27.2","61"
"1412156572","2014/10/01 15:12:52","27.3","61"
"1412156880","2014/10/01 15:18:00","27.3","61"
"1412157188","2014/10/01 15:23:08","27.3","61"
"1412157444","2014/10/01 15:27:24","27.3","61"
"1412157752","2014/10/01 15:32:32","27.2","61"
"1412158059","2014/10/01 15:37:39","27.2","60"
"1412158367","2014/10/01 15:42:47","27.2","61"
"1412158674","2014/10/01 15:47:54","27.3","61"
"1412158982","2014/10/01 15:53:02","27.3","60"
"1412159290","2014/10/01 15:58:10","27.3","60"
"1412159597","2014/10/01 16:03:17","27.3","60"
"1412159905","2014/10/01 16:08:25","27.3","60"
"1412160213","2014/10/01 16:13:33","27.3","60"
"1412160520","2014/10/01 16:18:40","27.3","59"
"1412160828","2014/10/01 16:23:48","27.4","60"
"1412161135","2014/10/01 16:28:55","27.3","60"
"1412161392","2014/10/01 16:33:12","27.3","60"
"1412161698","2014/10/01 16:38:18","27.3","60"
"1412162006","2014/10/01 16:43:26","27.3","60"
"1412162315","2014/10/01 16:48:35","27.3","59"
"1412162622","2014/10/01 16:53:42","27.3","59"
"1412162930","2014/10/01 16:58:50","27.3","59"
"1412163237","2014/10/01 17:03:57","27.2","59"
"1412163545","2014/10/01 17:09:05","27.2","59"
"1412163853","2014/10/01 17:14:13","27.2","59"
"1412164160","2014/10/01 17:19:20","27.2","59"
"1412164468","2014/10/01 17:24:28","27.1","58"
"1412164776","2014/10/01 17:29:36","27.1","58"
"1412165083","2014/10/01 17:34:43","27.1","59"
"1412165391","2014/10/01 17:39:51","27","59"
"1412165647","2014/10/01 17:44:07","27","58"
"1412165954","2014/10/01 17:49:14","27","58"
"1412166261","2014/10/01 17:54:21","27","58"
"1412166569","2014/10/01 17:59:29","26.9","59"
"1412166877","2014/10/01 18:04:37","26.8","59"
"1412167184","2014/10/01 18:09:44","26.8","58"
"1412167492","2014/10/01 18:14:52","26.7","59"
"1412167799","2014/10/01 18:19:59","26.7","59"
"1412168107","2014/10/01 18:25:07","26.6","59"
"1412168415","2014/10/01 18:30:15","26.6","60"
"1412168722","2014/10/01 18:35:22","26.5","60"
"1412169030","2014/10/01 18:40:30","26.4","61"
"1412169338","2014/10/01 18:45:38","26.4","61"
"1412169645","2014/10/01 18:50:45","26.4","61"
"1412169902","2014/10/01 18:55:02","26.3","61"
"1412170209","2014/10/01 19:00:09","26.3","62"
"1412170517","2014/10/01 19:05:17","26.3","62"
"1412170825","2014/10/01 19:10:25","26.3","62"
"1412171133","2014/10/01 19:15:33","26.2","63"
"1412171440","2014/10/01 19:20:40","26.2","63"
"1412171747","2014/10/01 19:25:47","26.2","63"
"1412172055","2014/10/01 19:30:55","26.2","63"
"1412172362","2014/10/01 19:36:02","26.2","63"
"1412172670","2014/10/01 19:41:10","26.2","64"
"1412172978","2014/10/01 19:46:18","26.1","64"
"1412173284","2014/10/01 19:51:24","26.1","64"
"1412173592","2014/10/01 19:56:32","26.1","64"
"1412173848","2014/10/01 20:00:48","26.1","65"
"1412174156","2014/10/01 20:05:56","26","65"
"1412174464","2014/10/01 20:11:04","26","65"
"1412174772","2014/10/01 20:16:12","26","65"
"1412175079","2014/10/01 20:21:19","26","65"
"1412175386","2014/10/01 20:26:26","25.9","65"
"1412175695","2014/10/01 20:31:35","25.9","65"
"1412176003","2014/10/01 20:36:43","25.9","65"
"1412176309","2014/10/01 20:41:49","25.8","66"
"1412176617","2014/10/01 20:46:57","25.8","66"
"1412176924","2014/10/01 20:52:04","25.7","66"
"1412177232","2014/10/01 20:57:12","25.7","66"
"1412177541","2014/10/01 21:02:21","25.7","66"
"1412177848","2014/10/01 21:07:28","25.6","66"
"1412178104","2014/10/01 21:11:44","25.6","66"
"1412178411","2014/10/01 21:16:51","25.6","67"
"1412178719","2014/10/01 21:21:59","25.5","67"
"1412179026","2014/10/01 21:27:06","25.5","67"
"1412179334","2014/10/01 21:32:14","25.4","66"
"1412179642","2014/10/01 21:37:22","25.4","66"
"1412179949","2014/10/01 21:42:29","25.4","66"
"1412180257","2014/10/01 21:47:37","25.3","66"
"1412180565","2014/10/01 21:52:45","25.3","66"
"1412180872","2014/10/01 21:57:52","25.2","66"
"1412181180","2014/10/01 22:03:00","25.2","66"
"1412181487","2014/10/01 22:08:07","25.1","67"
"1412181794","2014/10/01 22:13:14","25.1","67"
"1412182050","2014/10/01 22:17:30","25","67"
"1412182359","2014/10/01 22:22:39","25","67"
"1412182667","2014/10/01 22:27:47","25","67"
"1412182974","2014/10/01 22:32:54","24.9","67"
"1412183282","2014/10/01 22:38:02","24.9","67"
"1412183589","2014/10/01 22:43:09","24.9","67"
"1412183897","2014/10/01 22:48:17","24.8","67"
"1412184205","2014/10/01 22:53:25","24.8","68"
"1412184512","2014/10/01 22:58:32","24.7","68"
"1412184819","2014/10/01 23:03:39","24.7","68"
"1412185127","2014/10/01 23:08:47","24.7","68"
"1412185434","2014/10/01 23:13:54","24.6","68"
"1412185742","2014/10/01 23:19:02","24.6","68"
"1412185998","2014/10/01 23:23:18","24.6","68"
"1412186306","2014/10/01 23:28:26","24.5","68"
"1412186614","2014/10/01 23:33:34","24.5","69"
"1412186922","2014/10/01 23:38:42","24.5","69"
"1412187229","2014/10/01 23:43:49","24.4","69"
"1412187536","2014/10/01 23:48:56","24.4","69"
"1412187844","2014/10/01 23:54:04","24.4","69"
"1412188151","2014/10/01 23:59:11","24.4","69"
"1412188459","2014/10/02 00:04:19","24.4","69"
"1412188767","2014/10/02 00:09:27","24.3","69"
"1412189074","2014/10/02 00:14:34","24.3","69"
"1412189382","2014/10/02 00:19:42","24.3","69"
"1412189690","2014/10/02 00:24:50","24.3","69"
"1412189946","2014/10/02 00:29:06","24.2","69"
"1412190254","2014/10/02 00:34:14","24.1","69"
"1412190561","2014/10/02 00:39:21","24.1","69"
"1412190869","2014/10/02 00:44:29","24","69"
"1412191176","2014/10/02 00:49:36","24","69"
"1412191484","2014/10/02 00:54:44","24","70"
"1412191792","2014/10/02 00:59:52","24","70"
"1412192098","2014/10/02 01:04:58","23.9","70"
"1412192406","2014/10/02 01:10:06","23.9","70"
"1412192714","2014/10/02 01:15:14","23.9","70"
"1412193022","2014/10/02 01:20:22","23.8","70"
"1412193330","2014/10/02 01:25:30","23.8","70"
"1412193637","2014/10/02 01:30:37","23.8","70"
"1412193945","2014/10/02 01:35:45","23.8","70"
"1412194201","2014/10/02 01:40:01","23.8","71"
"1412194509","2014/10/02 01:45:09","23.7","71"
"1412194816","2014/10/02 01:50:16","23.6","71"
"1412195124","2014/10/02 01:55:24","23.6","71"
"1412195432","2014/10/02 02:00:32","23.5","71"
"1412195739","2014/10/02 02:05:39","23.5","72"
"1412196047","2014/10/02 02:10:47","23.5","72"
"1412196355","2014/10/02 02:15:55","23.5","72"
"1412196662","2014/10/02 02:21:02","23.5","72"
"1412196969","2014/10/02 02:26:09","23.4","72"
"1412197276","2014/10/02 02:31:16","23.4","72"
"1412197585","2014/10/02 02:36:25","23.4","72"
"1412197893","2014/10/02 02:41:33","23.4","72"
"1412198149","2014/10/02 02:45:49","23.3","72"
"1412198457","2014/10/02 02:50:57","23.3","73"
"1412198763","2014/10/02 02:56:03","23.3","73"
"1412199071","2014/10/02 03:01:11","23.3","73"
"1412199378","2014/10/02 03:06:18","23.2","73"
"1412199686","2014/10/02 03:11:26","23.2","73"
"1412199995","2014/10/02 03:16:35","23.2","73"
"1412200302","2014/10/02 03:21:42","23.1","73"
"1412200609","2014/10/02 03:26:49","23.1","73"
"1412200917","2014/10/02 03:31:57","23.1","74"
"1412201224","2014/10/02 03:37:04","23.1","74"
"1412201532","2014/10/02 03:42:12","23.1","74"
"1412201838","2014/10/02 03:47:18","23.1","74"
"1412202146","2014/10/02 03:52:26","23.1","74"
"1412202402","2014/10/02 03:56:42","23","74"
"1412202710","2014/10/02 04:01:50","23","74"
"1412203019","2014/10/02 04:06:59","22.9","74"
"1412203326","2014/10/02 04:12:06","22.9","74"
"1412203634","2014/10/02 04:17:14","22.9","75"
"1412203941","2014/10/02 04:22:21","22.9","75"
"1412204248","2014/10/02 04:27:28","22.8","75"
"1412204556","2014/10/02 04:32:36","22.8","75"
"1412204864","2014/10/02 04:37:44","22.7","75"
"1412205172","2014/10/02 04:42:52","22.7","75"
"1412205480","2014/10/02 04:48:00","22.7","76"
"1412205787","2014/10/02 04:53:07","22.6","76"
"1412206095","2014/10/02 04:58:15","22.6","76"
"1412206351","2014/10/02 05:02:31","22.6","76"
"1412206659","2014/10/02 05:07:39","22.6","76"
"1412206966","2014/10/02 05:12:46","22.5","76"
"1412207273","2014/10/02 05:17:53","22.5","76"
"1412207581","2014/10/02 05:23:01","22.5","77"
"1412207889","2014/10/02 05:28:09","22.4","77"
"1412208197","2014/10/02 05:33:17","22.4","77"
"1412208504","2014/10/02 05:38:24","22.4","77"
"1412208812","2014/10/02 05:43:32","22.4","77"
"1412209120","2014/10/02 05:48:40","22.3","77"
"1412209427","2014/10/02 05:53:47","22.3","77"
"1412209734","2014/10/02 05:58:54","22.3","77"
"1412210042","2014/10/02 06:04:02","22.4","77"
"1412210349","2014/10/02 06:09:09","22.4","77"
"1412210606","2014/10/02 06:13:26","22.4","77"
"1412210913","2014/10/02 06:18:33","22.4","77"
"1412211221","2014/10/02 06:23:41","22.4","77"
"1412211528","2014/10/02 06:28:48","22.4","78"
"1412211836","2014/10/02 06:33:56","22.3","78"
"1412212143","2014/10/02 06:39:03","22.3","78"
"1412212450","2014/10/02 06:44:10","22.3","78"
"1412212759","2014/10/02 06:49:19","22.4","78"
"1412213066","2014/10/02 06:54:26","22.4","78"
"1412213374","2014/10/02 06:59:34","22.4","79"
"1412213682","2014/10/02 07:04:42","22.5","79"
"1412213990","2014/10/02 07:09:50","22.5","79"
"1412214298","2014/10/02 07:14:58","22.6","79"
"1412214606","2014/10/02 07:20:06","22.7","79"
"1412214862","2014/10/02 07:24:22","22.7","79"
"1412215170","2014/10/02 07:29:30","22.8","78"
"1412215477","2014/10/02 07:34:37","22.8","79"
"1412215784","2014/10/02 07:39:44","22.9","79"
"1412216091","2014/10/02 07:44:51","23","78"
"1412216399","2014/10/02 07:49:59","23","78"
"1412216707","2014/10/02 07:55:07","23.1","78"
"1412217013","2014/10/02 08:00:13","23.2","78"
"1412217321","2014/10/02 08:05:21","23.3","78"
"1412217628","2014/10/02 08:10:28","23.4","78"
"1412217936","2014/10/02 08:15:36","23.5","78"
"1412218244","2014/10/02 08:20:44","23.5","77"
"1412218551","2014/10/02 08:25:51","23.6","77"
"1412218859","2014/10/02 08:30:59","23.7","77"
"1412219115","2014/10/02 08:35:15","23.8","77"
"1412219423","2014/10/02 08:40:23","23.8","76"
"1412219730","2014/10/02 08:45:30","23.9","76"
"1412220038","2014/10/02 08:50:38","24","76"
"1412220346","2014/10/02 08:55:46","24","76"
"1412220653","2014/10/02 09:00:53","24.1","76"
"1412220961","2014/10/02 09:06:01","24.2","75"
"1412221269","2014/10/02 09:11:09","24.3","75"
"1412221576","2014/10/02 09:16:16","24.4","73"
"1412221884","2014/10/02 09:21:24","24.5","71"
"1412222191","2014/10/02 09:26:31","24.6","71"
"1412222499","2014/10/02 09:31:39","24.7","71"
"1412222755","2014/10/02 09:35:55","24.8","69"
"1412223062","2014/10/02 09:41:02","24.9","67"
"1412223370","2014/10/02 09:46:10","24.9","67"
"1412223678","2014/10/02 09:51:18","25","68"
"1412223986","2014/10/02 09:56:26","25.1","68"
"1412224293","2014/10/02 10:01:33","25.1","67"
"1412224601","2014/10/02 10:06:41","25.2","66"
"1412224909","2014/10/02 10:11:49","25.3","67"
"1412225216","2014/10/02 10:16:56","25.3","67"
"1412225524","2014/10/02 10:22:04","25.4","66"
"1412225832","2014/10/02 10:27:12","25.5","65"
"1412226138","2014/10/02 10:32:18","25.5","65"
"1412226446","2014/10/02 10:37:26","25.6","65"
"1412226754","2014/10/02 10:42:34","25.6","65"
"1412227011","2014/10/02 10:46:51","25.7","65"
"1412227317","2014/10/02 10:51:57","25.8","65"
"1412227625","2014/10/02 10:57:05","25.9","63"
"1412227933","2014/10/02 11:02:13","25.9","62"
"1412228240","2014/10/02 11:07:20","26","62"
"1412228549","2014/10/02 11:12:29","26.1","60"
"1412228856","2014/10/02 11:17:36","26.2","59"
"1412229163","2014/10/02 11:22:43","26.3","58"
"1412229471","2014/10/02 11:27:51","26.4","57"
"1412229778","2014/10/02 11:32:58","26.4","57"
"1412230086","2014/10/02 11:38:06","26.5","57"
"1412230394","2014/10/02 11:43:14","26.6","58"
"1412230701","2014/10/02 11:48:21","26.6","56"
"1412230958","2014/10/02 11:52:38","26.7","56"
"1412231265","2014/10/02 11:57:45","26.8","57"
"1412231573","2014/10/02 12:02:53","26.8","56"
"1412231880","2014/10/02 12:08:00","26.9","57"
"1412232188","2014/10/02 12:13:08","26.9","57"
"1412232496","2014/10/02 12:18:16","26.9","56"
"1412232803","2014/10/02 12:23:23","26.9","56"
"1412233111","2014/10/02 12:28:31","27","56"
"1412233418","2014/10/02 12:33:38","27","56"
"1412233726","2014/10/02 12:38:46","27","56"
"1412234034","2014/10/02 12:43:54","27","55"
"1412234341","2014/10/02 12:49:01","27.1","56"
"1412234649","2014/10/02 12:54:09","27.1","55"
"1412234957","2014/10/02 12:59:17","27.2","55"
"1412235213","2014/10/02 13:03:33","27.3","55"
"1412235521","2014/10/02 13:08:41","27.3","54"
"1412235827","2014/10/02 13:13:47","27.4","55"
"1412236135","2014/10/02 13:18:55","27.4","55"
"1412236442","2014/10/02 13:24:02","27.4","55"
"1412236750","2014/10/02 13:29:10","27.4","56"
"1412237059","2014/10/02 13:34:19","27.4","56"
"1412237366","2014/10/02 13:39:26","27.5","56"
"1412237673","2014/10/02 13:44:33","27.5","55"
"1412237980","2014/10/02 13:49:40","27.6","55"
"1412238289","2014/10/02 13:54:49","27.6","54"
"1412238597","2014/10/02 13:59:57","27.7","54"
"1412238904","2014/10/02 14:05:04","27.7","53"
"1412239212","2014/10/02 14:10:12","27.7","53"
"1412239468","2014/10/02 14:14:28","27.8","54"
"1412239776","2014/10/02 14:19:36","27.8","54"
"1412240082","2014/10/02 14:24:42","27.9","55"
"1412240390","2014/10/02 14:29:50","27.9","54"
"1412240699","2014/10/02 14:34:59","28","54"
"1412241006","2014/10/02 14:40:06","28","54"
"1412241314","2014/10/02 14:45:14","28","53"
"1412241622","2014/10/02 14:50:22","28","53"
"1412241929","2014/10/02 14:55:29","28","53"
"1412242237","2014/10/02 15:00:37","28","52"
"1412242544","2014/10/02 15:05:44","28","52"
"1412242852","2014/10/02 15:10:52","28.1","52"
"1412243159","2014/10/02 15:15:59","28.1","51"
"1412243466","2014/10/02 15:21:06","28.1","51"
"1412243724","2014/10/02 15:25:24","28.1","51"
"1412244031","2014/10/02 15:30:31","28.1","51"
"1412244338","2014/10/02 15:35:38","28.1","51"
"1412244645","2014/10/02 15:40:45","28.1","51"
"1412244953","2014/10/02 15:45:53","28.1","51"
"1412245261","2014/10/02 15:51:01","28.1","51"
"1412245568","2014/10/02 15:56:08","28","51"
"1412245876","2014/10/02 16:01:16","28","51"
"1412246183","2014/10/02 16:06:23","28","51"
"1412246490","2014/10/02 16:11:30","28","52"
"1412246799","2014/10/02 16:16:39","28","52"
"1412247106","2014/10/02 16:21:46","28","52"
"1412247414","2014/10/02 16:26:54","28","51"
"1412247722","2014/10/02 16:32:02","28","51"
"1412247977","2014/10/02 16:36:17","28","51"
"1412248285","2014/10/02 16:41:25","27.9","51"
"1412248593","2014/10/02 16:46:33","27.9","50"
"1412248901","2014/10/02 16:51:41","27.9","50"
"1412249208","2014/10/02 16:56:48","27.9","50"
"1412249516","2014/10/02 17:01:56","27.9","50"
"1412249824","2014/10/02 17:07:04","27.8","50"
"1412250131","2014/10/02 17:12:11","27.8","50"
"1412250439","2014/10/02 17:17:19","27.8","49"
"1412250747","2014/10/02 17:22:27","27.8","49"
"1412251053","2014/10/02 17:27:33","27.8","50"
"1412251361","2014/10/02 17:32:41","27.7","49"
"1412251668","2014/10/02 17:37:48","27.7","50"
"1412251976","2014/10/02 17:42:56","27.7","50"
"1412252232","2014/10/02 17:47:12","27.6","50"
"1412252540","2014/10/02 17:52:20","27.6","51"
"1412252849","2014/10/02 17:57:29","27.5","51"
"1412253156","2014/10/02 18:02:36","27.4","52"
"1412253464","2014/10/02 18:07:44","27.4","52"
"1412253771","2014/10/02 18:12:51","27.3","52"
"1412254078","2014/10/02 18:17:58","27.3","52"